Flag for Japan Weather past 2 weeks in Fukuoka, Japan

Now
37 °F

Passing clouds.


Feels Like: 34 °F
Forecast: 36 / 50 °F
Wind: 5 mph from Northeast

Location: Fukuoka Airport

Current Time: Dec 18, 2014 at 6:38:07 PM

Latest Report: Dec 18, 2014 at 6:00 PM


Visibility: N/A

Pressure: 30.45 "Hg

Humidity: 52%

Dew point: 21 °F

Location of FukuokaLocation

Historic Weather in Fukuoka — Graph

°F

Fukuoka temperature yesterday

Maximum temperature yesterday: 43 °F (at 1:00 PM)
Minimum temperature yesterday: 36 °F (at 2:00 AM)
Average temperature yesterday: 39 °F

Past Weeks' High & Low Weather Summary

 TemperatureHumidityPressure
High61 °F (Dec 10, 3:00 PM)100% (Dec 4, 1:00 AM)30.45 "Hg (Dec 4, 1:00 AM)
Low32 °F (Dec 14, 10:30 PM)34% (Dec 14, 3:30 PM)29.86 "Hg (Dec 16, 7:30 AM)
Average44 °F61%30.18 "Hg
* Reported Dec 3 5:00 PM — Dec 18 5:30 PM, Fukuoka, Weather by CustomWeather, © 2014

Note: Actual official high and low records may vary slightly from our data, if they occured in-between our weather recording intervals... More about our weather records

Advertising

Fukuoka weather history for previous 24 hours

 ConditionsComfort  
Time TempWeatherWind HumidityBarometerVisibility
5:30 PM
Dec 18
37 °FPassing clouds.8 mph52%30.45 "HgN/A
5:00 PM37 °FScattered clouds.12 mph52%30.42 "HgN/A
4:30 PM39 °FScattered clouds.14 mph42%30.42 "HgN/A
4:00 PM39 °FScattered clouds.15 mph45%30.42 "HgN/A
3:30 PM39 °FPartly sunny.17 mph52%30.42 "HgN/A
3:00 PM39 °FPartly sunny.17 mph45%30.39 "HgN/A
2:30 PM41 °FPartly sunny.17 mph45%30.39 "HgN/A
2:00 PM39 °FPartly sunny.14 mph45%30.39 "HgN/A
1:30 PM39 °FPartly sunny.15 mph45%30.39 "HgN/A
12:30 PM37 °FPartly sunny.14 mph48%30.42 "HgN/A
12:00 PM39 °FPartly sunny.17 mph48%30.42 "HgN/A
11:30 AM39 °FPartly sunny.20 mph45%30.42 "HgN/A
11:00 AM39 °FPartly sunny.18 mph45%30.42 "HgN/A
10:30 AM39 °FPartly sunny.16 mph45%30.42 "HgN/A
10:00 AM39 °FPartly sunny.15 mph45%30.39 "HgN/A
9:30 AM37 °FPartly sunny.16 mph48%30.39 "HgN/A
9:00 AM37 °FPartly sunny.15 mph48%30.39 "HgN/A
8:30 AM37 °FPartly sunny.15 mph48%30.36 "HgN/A
8:00 AM37 °FPartly sunny.14 mph48%30.36 "HgN/A
7:30 AM37 °FPartly sunny.14 mph45%30.36 "HgN/A
7:00 AM37 °FPassing clouds.14 mph45%30.33 "HgN/A
6:30 AM37 °FPassing clouds.17 mph45%30.30 "HgN/A
6:00 AM37 °FPassing clouds.18 mph45%30.30 "HgN/A
5:30 AM37 °FPassing clouds.15 mph45%30.30 "HgN/A
5:00 AM37 °FPassing clouds.17 mph45%30.27 "HgN/A
4:30 AM36 °FPassing clouds.17 mph44%30.27 "HgN/A
4:00 AM36 °FPassing clouds.20 mph44%30.27 "HgN/A
3:30 AM36 °FPassing clouds.20 mph44%30.27 "HgN/A
3:00 AM37 °FPassing clouds.22 mph41%30.27 "HgN/A
2:30 AM37 °FPassing clouds.18 mph45%30.24 "HgN/A
2:00 AM37 °FPassing clouds.16 mph41%30.24 "HgN/A
1:30 AM37 °FPassing clouds.18 mph48%30.24 "HgN/A
1:00 AM37 °FPassing clouds.18 mph48%30.24 "HgN/A
12:30 AM37 °FPassing clouds.21 mph45%30.21 "HgN/A
12:00 AM37 °FPassing clouds.21 mph48%30.24 "HgN/A
11:30 PM
Dec 17
37 °FPassing clouds.17 mph45%30.24 "HgN/A
11:00 PM37 °FPassing clouds.20 mph45%30.24 "HgN/A
10:30 PM37 °FPassing clouds.18 mph45%30.24 "HgN/A
10:00 PM37 °FPassing clouds.21 mph41%30.21 "HgN/A
9:30 PM39 °FSnow flurries. Passing clouds.16 mph52%30.21 "HgN/A
9:00 PM39 °FSnow flurries. Passing clouds.18 mph48%30.18 "HgN/A
8:30 PM39 °FSnow flurries. Passing clouds.15 mph56%30.18 "HgN/A
8:00 PM39 °FSnow flurries. Passing clouds.15 mph52%30.15 "HgN/A
7:30 PM39 °FSnow flurries. Passing clouds.17 mph52%30.15 "HgN/A
7:00 PM39 °FPartly cloudy.18 mph45%30.15 "HgN/A
6:30 PM39 °FPartly cloudy.20 mph39%30.15 "HgN/A
6:00 PM39 °FPartly cloudy.23 mph42%30.12 "HgN/A
Weather by CustomWeather, © 2014

See weather overviewHow to use our weather pages